ROMMA est une association bénévole à but non lucratif. Votre soutien est indispensable : ADHERER à ROMMA ou FAIRE un DON

Chambon - (38, Isère)

Oisans (2460 m)   Longitude: 06° 10' 42" E   Latitude: 45° 01' 32" N Station partenaire n°803
 

Détail journalier du     <<     >>

Température Humidité Vent Dir Rafale Dir. rafale Neige 1 Neige 2
Heure (°C) (%) (km/h) (km/h) (cm) (cm)
01:00 -5.24910SSO24SSO158209
02:00 -5.24611SSO28SSO158209
03:00 -5.04311SSO27SSO158209
04:00 -4.13412S30SSO158209
05:00 -3.36016S34S158209
06:00 -2.97714S31S158209
07:00 -1.9818S22S158209
08:00 -1.0836SSE19SSE158209
09:00 -0.8886SSE25O158209
10:00 -0.1854S27S158209
11:00 -0.1918S22S158209
12:00 0.29312SO23SO158209
13:00 -0.39920SO37SO158209
14:00 -0.39920SO37SO158209
15:00 -0.310018SO35SO158209
16:00 -0.310018SO34SO158209
17:00 -0.510012SO25SO158209
18:00 -0.51008SSO21SO158209
19:00 -0.71008SSO28SO158209
20:00 -0.610010SO25SO158209
21:00 -0.610014SO24SO158209
22:00 0.0926SE19S158209
23:00 0.4856SE17SE158209
minuit 0.08917SSO37SO158209

Graphique du 09-03-2019

 

Serveur OMMA